EST,Max TemperatureF,Mean TemperatureF,Min TemperatureF,Max Dew PointF,MeanDew PointF,Min DewpointF,Max Humidity, Mean Humidity, Min Humidity, Max Sea Level PressureIn, Mean Sea Level PressureIn, Min Sea Level PressureIn, Max VisibilityMiles, Mean VisibilityMiles, Min VisibilityMiles, Max Wind SpeedMPH, Mean Wind SpeedMPH, Max Gust SpeedMPH,PrecipitationIn, CloudCover, Events, WindDirDegrees
2012-2-1,60,55,49,54,50,39,93,77,61,30.13,30.06,30.02,10,8,2,26,7,37,0.26,8,Rain-Thunderstorm,216
2012-2-2,56,47,37,52,40,33,100,73,46,30.39,30.21,30.04,10,6,2,12,4,14,T,4,,330
2012-2-3,57,45,32,36,33,30,89,64,38,30.44,30.36,30.25,10,10,10,15,7,18,0.00,0,,88
2012-2-4,47,44,40,45,41,33,100,80,60,30.24,30.11,30.04,10,4,1,14,6,16,0.53,8,Rain,67
2012-2-5,42,35,28,39,37,28,100,85,70,30.27,30.14,30.03,10,5,1,15,6,17,T,6,Rain,34
2012-2-6,48,36,24,34,29,24,100,75,50,30.26,30.22,30.18,10,7,2,13,3,17,0.00,1,,227
2012-2-7,49,38,27,34,30,26,92,69,46,30.27,30.23,30.20,10,10,8,13,5,20,0.00,2,,295
2012-2-8,36,33,30,32,30,28,100,91,82,30.35,30.27,30.22,10,4,1,12,4,14,0.07,8,Snow,339
2012-2-9,35,33,30,30,28,25,92,81,69,30.37,30.30,30.24,10,9,5,9,3,12,T,8,,255
2012-2-10,35,32,28,31,29,23,92,78,64,30.22,30.05,29.94,10,5,1,12,4,16,0.03,8,Snow,219
2012-2-11,32,24,16,31,18,7,92,76,59,30.40,30.13,29.92,10,7,1,24,15,31,0.05,7,Snow,303
2012-2-12,35,24,13,17,12,7,80,64,47,30.44,30.38,30.32,10,10,10,18,9,22,0.00,0,,257
2012-2-13,38,29,19,22,17,14,77,59,40,30.34,30.21,30.01,10,10,10,12,6,15,0.00,3,,182
2012-2-14,39,36,32,37,33,21,100,78,56,30.16,29.97,29.91,10,6,2,15,7,20,0.26,8,Rain-Snow,208
2012-2-15,51,40,29,41,35,29,100,81,61,30.26,30.17,30.06,10,9,4,14,5,17,0.03,5,Rain,126
2012-2-16,50,45,40,49,44,35,100,90,79,30.20,30.07,29.98,10,8,2,20,9,24,0.29,8,Rain,240
2012-2-17,51,42,32,35,29,25,92,64,36,30.25,30.19,30.12,10,8,3,8,2,13,0.00,2,,261
2012-2-18,53,43,32,35,30,27,82,66,50,30.12,30.08,30.04,10,10,4,16,6,20,0.00,0,,334
2012-2-19,38,33,27,27,24,22,75,67,59,30.16,30.02,29.95,10,10,10,20,12,24,0.00,5,,25
2012-2-20,46,33,20,28,23,19,92,67,42,30.34,30.23,30.09,10,10,10,17,8,23,0.00,0,,95
2012-2-21,54,43,32,40,35,28,85,70,54,30.07,29.93,29.88,10,10,10,30,14,38,0.04,4,Rain,212
2012-2-22,59,48,37,45,39,33,100,75,50,29.93,29.67,29.52,10,10,10,26,12,32,T,3,Rain-Thunderstorm,205
2012-2-23,69,55,40,55,47,39,100,71,42,29.63,29.47,29.34,10,10,4,21,7,25,0.26,4,Rain-Thunderstorm,155
2012-2-24,61,47,33,56,36,26,93,73,53,30.04,29.74,29.39,10,9,2,33,16,45,0.16,6,Rain-Snow,262
2012-2-25,39,32,25,25,20,16,78,61,44,30.39,30.22,30.04,10,10,10,24,9,33,T,4,,279
2012-2-26,54,37,20,23,20,17,88,57,26,30.43,30.34,30.25,10,10,10,15,7,20,0.00,0,,156
2012-2-27,62,50,38,36,28,23,50,43,36,30.45,30.34,30.26,10,10,10,18,10,24,0.00,2,,252
2012-2-28,64,48,32,38,30,24,72,53,34,30.45,30.30,30.02,10,10,10,15,7,16,0.00,2,,102
2012-2-29,64,60,55,61,57,39,93,70,47,30.02,29.78,29.65,10,8,1,29,15,47,1.11,6,Rain-Thunderstorm,212